Probability
0 0 0 0 0 0 0 0 0 0 0 0 0 0 0 0 0 0 0 0 0 0 0 0 0 0 0 0 0 0 0 0 0 0 0 0 0 0
0 0 0 0 0 0 0 0 0 0 0 0 0 0 0 0 0 0 0 0 0 0 0 0 0 0 0 0 0 0 0 0 0 0 0 0 0 0
0 0 0 0 0 0 0 0 0 0 0 0 0 0 0 0 0 0 0 0 0 0 0 0 0 0 0 0 0 0 0 0 0 0 0 0 0 0
0 0 0 0 0 0 0 0 0 0 0 0 0 0 0 0 0 0 0 0 0 0 0 0 0 0 0 0 0 0 0 0 0 0 0 0 0 0
0 0 0 0 0 0 0 0 0 0 0 0 0 0 0 0 0 0 0 0 0 0 0 0 0 0 0 0 0 0 0 0 0 0 0 0 0 0
0 0 0 0 0 0 0 0 0 0 0 0 0 0 0 0 0 0 0 0 0 0 0 0 0 0 0 0 0 0 0 0 0 0 0 0 0 0
0 0 0 0 0 0 0 0 0 0 0 0 0 0 0 0 0 0 0 0 0 0 0 0 0 0 0 0 0 0 0 0 0 0 0 0 0 0
0 0 0 0 0 0 0 0 0 0 0 0 0 0 0 0 0 0 0 0 0 0 0 0 0 0 0 0 0 0 0 0 0 0 0 0 0 0
0 0 0 0 0 0 0 0 0 0 0 0 0 0 0 0 0 0 0 0 0 0 0 0 0 0 0 0 0 0 0 0 0 0 0 0 0 0
0 0 0 0 0 0 0 0 0 0 0 0 0 0 0 0 0 0 0 0 0 0 0 0 0 0 0 0 0 0 0 0 0 0 0 0 0 0
0 0 0 0 0 0 0 0 0 0 0 0 0 0 0 0 0 0 0 0 0 0 0 0 0 0 0 0 0 0 0 0 0 0 0 0 0 0
0 0 0 0 0 0 0 0 0 0 0 0 0 0 0 0 0 0 0 0 0 0 0 0 0 0 0 0 0 0 0 0 0 0 0 0 0 0
0 0 0 0 0 0 0 0 0 0 0 0 0 0 0 0 0 0 0 0 0 0 0 0 0 0 0 0 0 0 0 0 0 0 0 0 0 0
0 0 0 0 0 0 0 0 0 0 0 0 0 0 0 0 0 0 0 0 0 0 0 0 0 0 0 0 0 0 0 0 0 0 0 0 0 0
0 0 0 0 0 0 0 0 0 0 0 0 0 0 0 0 0 0 0 0 0 0 0 0 0 0 0 0 0 0 0 0 0 0 0 0 0 0
0 0 0 0 0 0 0 0 0 0 0 0 0 0 0 0 0 0 0 0 0 0 0 0 0 0 0 0 0 0 0 0 0 0 0 0 0 0
0 0 0 0 0 0 0 0 0 0 0 0 0 0 0 0 0 0 0 0 0 0 0 0 0 0 0 0 0 0 0 0 0 0 0 0 0 0
0 0 0 0 0 0 0 0 0 0 0 0 0 0 0 0 0 0 0 0 0 0 0 0 0 0 0 0 0 0 0 0 0 0 0 0 0 0
0 0 0 0 0 0 0 0 0 0 0 0 0 0 0 0 0 0 0 0 0 0 0 0 0 0 0 0 0 0 0 0 0 0 0 0 0 0
0 0 0 0 0 0 0 0 0 0 0 0 0 0 0 0 0 0 0 0 0 0 0 0 0 0 0 0 0 0 0 0 0 0 0 0 0 0
0 0 0 0 0 0 0 0 0 0 0 0 0 0 0 0 0 0 0 0 0 0 0 0 0 0 0 0 0 0 0 0 0 0 0 0 0 0
0 0 0 0 0 0 0 0 0 0 0 0 0 0 0 0 0 0 0 0 0 0 0 0 0 0 0 0 0 0 0 0 0 0 0 0 0 0
0 0 0 0 0 0 0 0 0 0 0 0 0 0 0 0 0 0 0 0 0 0 0 0 0 0 0 0 0 0 0 0 0 0 0 0 0 0
Wind_Speed
1 1 1 2 2 2 2 2 3 4 4 3 3 3 3 3 3 3 2 2 3 4 5 6 5 3 5 9 12 16 21 24 24 25 25 24 23 21
2 2 2 2 3 3 2 2 3 4 5 3 4 6 7 6 4 4 3 2 1 2 4 4 3 2 6 10 14 18 21 23 23 22 21 19 18 18
4 4 4 3 3 3 3 3 2 3 6 5 4 6 7 7 3 3 3 2 1 1 3 4 5 6 8 12 16 19 21 22 21 21 20 18 17 16
4 5 5 4 5 4 3 4 3 3 4 7 6 5 6 6 4 3 3 3 2 2 3 4 6 8 9 12 15 17 18 19 19 18 17 16 15 15
4 5 5 6 5 4 5 4 4 4 4 5 6 4 3 3 2 2 3 2 2 3 4 4 5 8 9 11 14 15 16 16 16 16 15 14 14 13
5 5 5 5 5 6 5 5 5 5 5 5 5 4 4 3 2 1 2 2 3 3 4 4 5 7 9 11 12 14 14 14 14 14 14 13 13 13
6 6 6 8 8 5 4 5 5 4 5 4 4 4 4 4 3 2 3 2 3 3 4 4 5 5 6 9 11 13 13 14 14 13 13 13 13 12
6 6 5 8 10 10 9 7 5 4 4 4 4 5 5 5 5 4 3 2 3 4 4 4 5 5 6 7 10 13 14 14 14 14 14 13 13 13
5 6 6 7 9 8 9 8 7 7 4 3 4 4 5 5 7 6 5 3 3 2 4 4 5 6 6 7 12 14 15 15 15 14 14 14 14 14
5 5 5 7 9 9 7 7 7 7 7 4 3 5 5 6 6 5 6 5 2 1 3 3 4 5 5 5 11 14 15 15 15 15 14 14 14 14
4 5 6 7 11 11 7 7 8 8 7 8 7 7 8 9 8 5 6 4 2 1 1 1 2 3 3 4 6 11 12 13 13 13 13 13 13 12
4 5 8 9 10 10 7 7 8 7 8 9 9 10 9 9 10 7 5 5 3 3 2 1 0 2 2 2 3 4 6 8 11 11 11 11 10 8
4 4 5 9 9 9 7 6 6 6 5 6 7 8 8 8 9 8 6 4 3 2 3 3 1 0 1 1 2 3 4 4 5 5 8 9 9 8
2 2 4 8 8 9 7 8 9 7 5 6 7 7 7 8 8 8 7 5 3 2 4 4 2 1 0 1 1 2 3 3 3 4 4 6 6 6
2 3 4 7 6 5 8 10 8 6 6 6 6 6 6 7 7 6 7 6 5 5 6 5 3 1 0 1 1 1 2 2 3 3 4 4 4 3
3 4 5 6 5 5 5 5 5 5 4 4 5 5 6 6 7 7 6 6 5 5 7 8 6 3 1 1 0 1 1 2 2 3 3 3 3 3
2 2 3 3 4 4 4 4 4 5 4 4 5 5 6 6 6 6 5 5 5 6 7 7 6 4 3 2 2 2 2 2 2 2 3 3 2 2
2 1 1 2 2 2 3 3 4 4 4 4 5 5 5 6 6 6 6 6 6 6 6 6 6 4 3 4 5 3 2 2 2 2 2 2 2 2
1 0 0 1 1 1 2 2 2 3 3 4 5 5 5 5 5 6 6 6 6 6 5 5 6 5 4 3 4 5 3 2 1 2 2 1 2 2
1 1 2 2 1 1 1 1 1 2 3 3 4 5 5 5 5 6 6 7 6 6 6 6 6 5 4 3 3 4 6 3 1 0 1 1 1 1
3 3 3 2 2 2 1 0 0 1 2 2 3 4 4 4 5 5 5 7 6 6 6 6 6 7 3 2 2 3 4 6 4 1 1 1 2 2
4 4 3 3 3 2 2 1 1 1 2 2 3 3 4 4 4 5 5 6 5 5 6 5 6 5 4 4 4 4 4 5 5 4 3 2 1 2
6 5 4 4 3 3 3 2 2 1 1 1 2 3 3 3 4 4 5 5 6 6 6 6 6 5 5 4 4 3 5 5 4 3 3 6 5 2
Wind_Direction
325 325 308 314 322 301 282 271 283 297 299 284 296 304 310 286 256 241 240 278 322 339 343 338 327 256 198 180 173 169 164 164 165 166 170 173 177 181
16 20 14 357 353 349 335 317 287 281 285 292 289 299 303 291 249 229 221 229 329 2 11 10 23 94 144 150 149 150 152 155 157 162 167 170 173 180
30 30 21 9 0 351 345 338 324 302 286 293 285 300 296 291 273 222 207 205 198 68 56 56 71 93 118 132 138 143 147 151 156 161 165 168 175 182
34 31 15 5 2 353 345 338 324 307 294 299 304 303 295 299 277 227 208 201 187 148 113 97 96 103 114 126 134 140 145 151 156 161 166 170 177 184
40 33 13 6 359 347 339 336 325 318 296 294 301 299 296 314 306 242 211 201 194 171 153 132 124 122 126 131 137 142 148 154 159 164 168 175 182 187
38 31 20 9 352 340 338 338 333 330 326 317 311 316 314 319 314 273 228 205 207 190 173 161 156 148 148 148 150 153 158 162 166 171 177 182 187 192
34 25 19 17 9 358 346 335 337 338 338 339 334 336 338 341 334 311 267 225 209 188 174 176 173 175 175 171 169 170 171 173 176 181 185 190 195 201
36 16 9 16 3 360 359 359 356 345 338 339 336 337 333 328 326 316 296 245 221 188 182 188 180 189 190 193 190 186 186 188 190 193 197 201 204 209
44 25 16 6 4 357 352 360 7 5 356 312 321 325 322 325 325 319 309 287 252 184 179 194 184 198 196 199 193 195 197 199 201 204 206 209 213 216
49 34 19 3 3 354 354 6 6 8 0 354 326 313 311 312 308 294 299 296 269 200 186 194 185 193 183 192 197 200 202 204 206 208 211 214 217 221
42 35 26 14 360 6 16 10 6 3 3 6 10 9 2 4 0 356 352 346 331 320 231 214 177 170 172 181 184 191 198 202 205 207 210 212 215 218
31 26 29 22 13 17 24 19 11 351 348 357 5 8 9 9 15 18 1 354 347 342 351 327 179 150 167 165 163 171 184 197 200 204 207 207 203 204
38 16 8 11 22 27 31 27 360 341 354 4 7 8 8 7 6 6 4 358 350 342 338 329 323 139 149 138 151 174 176 172 178 189 195 192 190 193
43 5 356 6 24 31 31 18 15 19 19 17 17 11 4 358 353 351 353 358 350 328 329 332 328 321 148 149 164 169 176 173 173 171 163 161 173 188
16 2 14 21 24 28 23 21 22 24 23 21 12 360 344 339 344 348 354 360 12 22 17 5 347 330 300 195 168 161 154 162 171 167 158 157 159 161
10 2 20 35 39 23 15 17 19 19 21 13 359 347 344 353 2 1 358 -0 6 5 10 13 9 7 9 12 135 141 137 144 147 149 142 135 128 128
357 23 25 19 20 16 10 8 9 11 13 5 0 359 359 5 6 360 0 8 18 5 4 3 2 16 42 39 54 73 94 100 111 124 127 122 115 123
85 56 24 4 358 357 357 356 0 4 0 359 4 4 3 4 6 6 8 15 16 11 12 4 357 2 23 54 36 40 52 68 104 126 122 132 146 162
109 131 254 289 306 317 330 341 350 356 357 5 8 7 5 8 9 8 9 13 12 11 12 11 12 12 14 18 27 31 27 33 80 132 136 146 162 163
205 218 229 242 259 277 297 322 345 4 15 18 16 13 12 12 14 12 12 11 7 6 11 15 17 9 0 347 350 14 24 24 18 131 122 108 95 97
219 223 225 228 238 244 253 280 17 36 32 24 20 14 9 8 11 10 9 8 9 9 9 3 345 333 315 328 11 18 15 19 23 10 148 157 164 185
221 222 221 216 215 215 205 182 142 90 54 37 24 15 9 8 7 5 5 4 4 3 358 350 346 358 21 31 27 14 9 11 20 42 45 19 246 209
218 214 212 204 201 196 191 185 176 152 106 51 27 14 11 11 9 11 11 12 8 7 4 1 1 8 17 19 19 15 19 17 18 24 18 4 357 326